Tracking 29892 objects as of 21-Nov-2024
HD Live streaming from Space Station
objects crossing your sky now

STARLINK-3318

Track STARLINK-3318 now!
10-day predictions
STARLINK-3318 is classified as:


NORAD ID: 50837
Int'l Code: 2022-001AL
Perigee: 545.9 km
Apogee: 547.8 km
Inclination: 53.2 °
Period: 95.4 minutes
Semi major axis: 6917 km
RCS: Unknown
Launch date: January 6, 2022
Source: United States (US)
Launch site: AIR FORCE EASTERN TEST RANGE (AFETR)
Your satellite tracking list
Your tracking list is empty




NASA's NSSDC Master Catalog

Two Line Element Set (TLE):
1 50837U 22001AL  24325.85068940 -.00000350  00000-0 -38856-5 0  9999
2 50837  53.2150 136.2650 0001431  87.1440 272.9716 15.08850433160072
Source of the keplerian elements: AFSPC